Regional Weather Roundup
Issued by NWS Albany, NY

Current Version | Previous Version | Graphics & Text | Print | Product List | Glossary Off
Versions: 1 2 3 4 5 6 7 8 9 10 11 12 13 14 15 16 17 18 19 20 21 22 23 24 25 26 27 28 29 30 31 32 33 34 35 36 37 38 39 40 41 42 43 44 45 46 47 48 49 50

752
ASUS41 KALY 290910
RWRALY

NEW YORK STATE HOURLY WEATHER ROUNDUP
NATIONAL WEATHER SERVICE ALBANY NY
500 AM EDT FRI APR 29 2016

NOTE: "FAIR" INDICATES FEW OR NO CLOUDS BELOW 12,000 FEET WITH NO
SIGNIFICANT WEATHER AND/OR NO OBSTRUCTIONS TO VISIBILITY.

NYZ032-033-038>043-046>054-057>066-NYZ062>081-082-084-291000-
EAST


CITY           SKY/WX    TMP DP  RH WIND       PRES   REMARKS
ALBANY         CLOUDY    38  19  46 NE7       30.10S WCI  33
GLENS FALLS    CLOUDY    38  21  50 N8        30.11S WCI  32
POUGHKEEPSIE   CLOUDY    48  37  65 N6        30.06R
MONTGOMERY     CLOUDY    47  42  83 N6        30.05R
WHITE PLAINS   DRIZZLE   46  40  79 E5        30.06R
ISLIP          CLOUDY    47  36  65 E7        30.07R
NEW YORK CITY  CLOUDY    50  34  54 E8        30.06R
CENTRAL PARK   CLOUDY    50  33  52 VRB5      30.08S
$$

NYZ005>009-017-018-044>046-055-056-291000-
CENTRAL


CITY           SKY/WX    TMP DP  RH WIND       PRES   REMARKS
FULTON         CLOUDY    37  28  70 CALM      30.05S
SYRACUSE       CLOUDY    41  27  57 CALM      30.04S
ROME           CLOUDY    38  27  64 E7        30.07S WCI  33
ELMIRA         CLOUDY    42  33  70 E3        30.02F
BINGHAMTON     CLOUDY    42  32  67 NE5       30.00S
MONTICELLO     CLOUDY    43  39  87 E5        30.04S
$$

NYZ026>034-041>043-087-291000-
NORTH


CITY           SKY/WX    TMP DP  RH WIND       PRES   REMARKS
WATERTOWN      PTCLDY    34  20  56 NE8       30.07F WCI  27
FORT DRUM      NOT AVBL
MASSENA        PTCLDY    30  21  69 NE7       30.16S WCI  23
SARANAC LAKE   CLOUDY    27  13  55 NE5       30.05F WCI  22
PLATTSBURGH    PTCLDY    26  20  77 NW3       30.16S
$$

NYZ001>004-010>016-019>021-085-291000-
WEST


CITY           SKY/WX    TMP DP  RH WIND       PRES   REMARKS
NIAGARA FALLS  CLOUDY    42  23  46 E9        30.04S
BUFFALO        CLOUDY    42  23  46 E9        30.03S
DUNKIRK        CLOUDY    44  30  57 E9        30.01S
JAMESTOWN      CLOUDY    41  34  75 E8        29.97S
WELLSVILLE     CLOUDY    38  31  76 E5        30.00R WCI  34
ROCHESTER      MOCLDY    40  27  59 NE6       30.06S
PENN YAN       CLOUDY    41  31  67 CALM      30.03S
$$

             KEY
       WCI = WIND CHILL INDEX
       VSB = VISIBILITY
       HX  = HEAT INDEX
$$




USA.gov is the U.S. government's official web portal to all federal, state and local government web resources and services.